OPS 0252

Satellite information

Favourite Embed

Satellite Type and Status

PAYLOADIN ORBIT

Key statistics

Satellite OPS 0252 at a glance.

Uptime

15550

Days in orbit

Revolutions

≈ 13.8

Per day

Orbit

LEO

Low Earth Orbit

Inclination

63.3

Latest

Satellite identification and parameters

Extended collection of information and parameters for OPS 0252.

Object identification

Identified? True

Debris? False

Object name: OPS 0252

International designator: 1983-008A

Object number (NORAD): 13791

Object ID (CCSDS): 13791

Country: UNITED STATES OF AMERICA (US)

Current information (Y/N): Y

RCS size: LARGE

Orbital parameters

Period: 103.996 minutes

Inclination: 63.3083 deg

SMA: 7325.491 km

Apoapsis: 1468.322 km

Periapsis: 426.389 km

RAAN: 4.1633 deg

Eccentricy: 0.07111692

Argument of periapsis: 131.3362 deg

Mean anomaly: 235.1155 deg

Mean motion: 13.84674445 rev/day

Mean motion (dot): 0.00008483 rev/day2

B* drag term: 0.00094236512 1/REarth

Two-line elements (TLE)

Creation date: Sept. 5, 2025, 7:38 p.m.

Reference frame: TEME

Reference center: EARTH

Epoch: Sept. 5, 2025, 2:25 p.m. UTC

TLE line 0: 0 OPS 0252

TLE line 1: 1 13791U 83008A 25248.60100289 .00008483 00000-0 94237-3 0 9998

TLE line 2: 2 13791 63.3083 4.1633 0711169 131.3362 235.1155 13.84674445 66849

Live tracking on map

Real-time ground track for satellite OPS 0252.

In-orbit conjunctions

There are no conjunctions computed for OPS 0252, at the moment. Check back to stay up to date, as we update our databases every day.

Go to all conjunctions

Associated space launch

The Parcae satellites were passive ELINT satellites. MSD satellites were dispensers of triplets of ocean surveillance satellites.

OPS 0252 was lifted into orbit during the mission ‘Atlas H | Parcae 5A,B,C & MSD 5’, on board a Atlas H space rocket.

The launch took place on Feb. 9, 1983, 1:47 p.m. from Space Launch Complex 3E.

For more information about the launch, click the button.

Launch to space Atlas H | Parcae 5A,B,C & MSD 5
Atlas H | Parcae 5A,B,C & MSD 5

Agency: N/A

Status: Launch Successful

Launch date: Feb. 9, 1983, 1:47 p.m. UTC

Rocket: Atlas H

Launch pad: Space Launch Complex 3E

Location: Vandenberg SFB, CA, USA

...

Latest news about this satellite

There are no fresh news available about this satellite. Check back as we update our databases every day.


Newsletter sign-up

Weekly statistics, charts and insights to help you stay on top of the space industry.